owner,sensor,date,latitude,longitude,vertical_datum,sea_water_temperature,qcFlag
Shell,ioos:station:wmo:42873:2,2021-10-04T00:32:00Z,28.1860,-89.1790,11.1,28.1,11111222
Shell,ioos:station:wmo:42873:2,2021-10-04T13:11:00Z,28.1939,-89.1772,11.2,28.2,11111222
Shell,ioos:station:wmo:42873:2,2021-10-04T13:21:00Z,28.1939,-89.1772,11.2,28.3,11111222
Shell,ioos:station:wmo:42873:2,2021-10-04T13:31:00Z,28.1938,-89.1773,11.2,28.2,11111222
Shell,ioos:station:wmo:42873:2,2021-10-04T13:41:00Z,28.1938,-89.1774,11.2,28.2,11111222
Shell,ioos:station:wmo:42873:2,2021-10-04T13:51:00Z,28.1939,-89.1771,11.2,28.1,11111222
Shell,ioos:station:wmo:42873:2,2021-10-04T14:01:00Z,28.1939,-89.1771,11.2,28.1,11111222
Shell,ioos:station:wmo:42873:2,2021-10-04T14:11:00Z,28.1939,-89.1772,11.1,28.1,11111222
Shell,ioos:station:wmo:42873:2,2021-10-04T14:21:00Z,28.1939,-89.1771,11.1,28.1,11111222
Shell,ioos:station:wmo:42873:2,2021-10-04T14:31:00Z,28.1939,-89.1771,11.1,28.2,11111222
Shell,ioos:station:wmo:42873:2,2021-10-04T14:41:00Z,28.1939,-89.1771,11.1,28.2,11111222
Shell,ioos:station:wmo:42873:2,2021-10-04T14:51:00Z,28.1938,-89.1772,11.1,28.1,11111222
Shell,ioos:station:wmo:42873:2,2021-10-04T15:01:00Z,28.1939,-89.1772,11.1,28.1,11111222
Shell,ioos:station:wmo:42873:2,2021-10-04T15:11:00Z,28.1940,-89.1769,11.1,28.1,11111222
Shell,ioos:station:wmo:42873:2,2021-10-04T15:21:00Z,28.1939,-89.1771,11.1,28.1,11111222
Shell,ioos:station:wmo:42873:2,2021-10-04T15:31:00Z,28.1938,-89.1771,11.1,28.1,11111222
Shell,ioos:station:wmo:42873:2,2021-10-04T15:41:00Z,28.1939,-89.1772,11.1,28.1,11111222
Shell,ioos:station:wmo:42873:2,2021-10-04T15:51:00Z,28.1936,-89.1770,11.3,28.2,11111222
Shell,ioos:station:wmo:42873:2,2021-10-04T16:01:00Z,28.1940,-89.1775,11.2,28.2,11111222
Shell,ioos:station:wmo:42873:2,2021-10-04T16:11:00Z,28.1937,-89.1776,11.2,28.2,11111222
Shell,ioos:station:wmo:42873:2,2021-10-04T16:21:00Z,28.1939,-89.1771,11.3,28.1,11111222
Shell,ioos:station:wmo:42873:2,2021-10-04T16:31:00Z,28.1938,-89.1774,11.3,28.1,11111222
Shell,ioos:station:wmo:42873:2,2021-10-04T16:41:00Z,28.1940,-89.1771,11.2,28.1,11111222
Shell,ioos:station:wmo:42873:2,2021-10-04T16:51:00Z,28.1941,-89.1769,11.1,28.1,11111222
Shell,ioos:station:wmo:42873:2,2021-10-04T17:01:00Z,28.1941,-89.1770,11.1,28.0,11111222
Shell,ioos:station:wmo:42873:2,2021-10-04T17:11:00Z,28.1940,-89.1773,11.0,28.2,11111222
Shell,ioos:station:wmo:42873:2,2021-10-04T17:21:00Z,28.1940,-89.1773,11.0,28.1,11111222
Shell,ioos:station:wmo:42873:2,2021-10-04T17:31:00Z,28.1939,-89.1773,11.0,28.2,11111222
Shell,ioos:station:wmo:42873:2,2021-10-04T17:41:00Z,28.1939,-89.1773,11.1,28.2,11111222
Shell,ioos:station:wmo:42873:2,2021-10-04T17:51:00Z,28.1939,-89.1772,11.2,28.1,11111222
Shell,ioos:station:wmo:42873:2,2021-10-04T18:01:00Z,28.1939,-89.1771,11.2,28.1,11111222
Shell,ioos:station:wmo:42873:2,2021-10-04T18:11:00Z,28.1939,-89.1771,11.2,28.2,11111222
Shell,ioos:station:wmo:42873:2,2021-10-04T18:22:00Z,28.1939,-89.1776,11.2,28.0,11111222
Shell,ioos:station:wmo:42873:2,2021-10-04T18:32:00Z,28.1941,-89.1780,11.2,28.1,11111222
Shell,ioos:station:wmo:42873:2,2021-10-04T18:42:00Z,28.1940,-89.1773,11.3,28.1,11111222
Shell,ioos:station:wmo:42873:2,2021-10-04T18:52:00Z,28.1939,-89.1772,11.2,28.1,11111222
Shell,ioos:station:wmo:42873:2,2021-10-04T19:02:00Z,28.1942,-89.1775,11.2,28.2,11111222
Shell,ioos:station:wmo:42873:2,2021-10-04T19:12:00Z,28.1939,-89.1772,11.2,28.1,11111222
Shell,ioos:station:wmo:42873:2,2021-10-04T19:22:00Z,28.1939,-89.1771,11.2,28.1,11111222
Shell,ioos:station:wmo:42873:2,2021-10-04T19:32:00Z,28.1938,-89.1770,11.1,28.1,11111222
Shell,ioos:station:wmo:42873:2,2021-10-04T19:42:00Z,28.1939,-89.1769,11.2,28.2,11111222
Shell,ioos:station:wmo:42873:2,2021-10-04T19:52:00Z,28.1939,-89.1772,11.1,28.2,11111222
Shell,ioos:station:wmo:42873:2,2021-10-04T20:02:00Z,28.1939,-89.1773,11.1,28.2,11111222
Shell,ioos:station:wmo:42873:2,2021-10-04T20:12:00Z,28.1939,-89.1777,11.2,28.2,11111222
Shell,ioos:station:wmo:42873:2,2021-10-04T20:22:00Z,28.1939,-89.1776,11.2,28.3,11111222
Shell,ioos:station:wmo:42873:2,2021-10-04T20:32:00Z,28.1860,-89.1790,11.1,28.3,11111222
Shell,ioos:station:wmo:42873:2,2021-10-04T20:42:00Z,28.1939,-89.1771,11.1,28.2,11111222
Shell,ioos:station:wmo:42873:2,2021-10-04T20:52:00Z,28.1940,-89.1772,11.2,28.3,11111222
Shell,ioos:station:wmo:42873:2,2021-10-04T21:02:00Z,28.1939,-89.1774,11.1,28.3,11111222
Shell,ioos:station:wmo:42873:2,2021-10-04T21:12:00Z,28.1939,-89.1773,11.1,28.3,11111222
Shell,ioos:station:wmo:42873:2,2021-10-04T21:22:00Z,28.1939,-89.1772,11.1,28.3,11111222
Shell,ioos:station:wmo:42873:2,2021-10-04T21:32:00Z,28.1940,-89.1772,11.1,28.2,11111222
Shell,ioos:station:wmo:42873:2,2021-10-04T21:42:00Z,28.1941,-89.1774,11.1,28.2,11111222
Shell,ioos:station:wmo:42873:2,2021-10-04T21:52:00Z,28.1940,-89.1773,11.1,28.3,11111222
Shell,ioos:station:wmo:42873:2,2021-10-04T22:02:00Z,28.1940,-89.1774,11.1,28.3,11111222
Shell,ioos:station:wmo:42873:2,2021-10-04T22:12:00Z,28.1940,-89.1773,11.1,28.3,11111222
Shell,ioos:station:wmo:42873:2,2021-10-04T22:22:00Z,28.1939,-89.1769,11.0,28.3,11111222
Shell,ioos:station:wmo:42873:2,2021-10-04T22:32:00Z,28.1939,-89.1771,11.0,28.2,11111222
Shell,ioos:station:wmo:42873:2,2021-10-04T22:42:00Z,28.1937,-89.1774,11.1,28.2,11111222
Shell,ioos:station:wmo:42873:2,2021-10-04T22:52:00Z,28.1940,-89.1772,11.1,28.2,11111222
Shell,ioos:station:wmo:42873:2,2021-10-04T23:02:00Z,28.1941,-89.1770,11.1,28.2,11111222
Shell,ioos:station:wmo:42873:2,2021-10-04T23:12:00Z,28.1940,-89.1773,11.1,28.2,11111222
Shell,ioos:station:wmo:42873:2,2021-10-04T23:22:00Z,28.1940,-89.1773,11.1,28.3,11111222
Shell,ioos:station:wmo:42873:2,2021-10-04T23:32:00Z,28.1940,-89.1773,11.1,28.3,11111222
Shell,ioos:station:wmo:42873:2,2021-10-04T23:42:00Z,28.1939,-89.1772,11.1,28.3,11111222
Shell,ioos:station:wmo:42873:2,2021-10-04T23:52:00Z,28.1939,-89.1771,11.1,28.2,11111222
Shell,ioos:station:wmo:42873:2,2021-10-05T00:02:00Z,28.1939,-89.1771,11.1,28.2,11111222
Shell,ioos:station:wmo:42873:2,2021-10-05T00:12:00Z,28.1939,-89.1771,11.1,28.2,11111222
Shell,ioos:station:wmo:42873:2,2021-10-05T00:22:00Z,28.1939,-89.1771,11.0,28.2,11111222
Shell,ioos:station:wmo:42873:2,2021-10-05T00:32:00Z,28.1939,-89.1770,11.1,28.2,11111222
Shell,ioos:station:wmo:42873:2,2021-10-05T00:42:00Z,28.1939,-89.1772,11.0,28.2,11111222
Shell,ioos:station:wmo:42873:2,2021-10-05T00:52:00Z,28.1939,-89.1772,11.0,28.2,11111222
Shell,ioos:station:wmo:42873:2,2021-10-05T01:02:00Z,28.1940,-89.1773,10.9,28.1,11111222
Shell,ioos:station:wmo:42873:2,2021-10-05T01:12:00Z,28.1939,-89.1772,11.0,28.2,11111222
Shell,ioos:station:wmo:42873:2,2021-10-05T01:22:00Z,28.1939,-89.1771,11.0,28.1,11111222
Shell,ioos:station:wmo:42873:2,2021-10-05T01:32:00Z,28.1939,-89.1770,11.0,28.2,11111222
Shell,ioos:station:wmo:42873:2,2021-10-05T01:43:00Z,28.1939,-89.1771,11.1,28.3,11111222
Shell,ioos:station:wmo:42873:2,2021-10-05T01:53:00Z,28.1939,-89.1771,11.1,28.2,11111222
Shell,ioos:station:wmo:42873:2,2021-10-05T02:03:00Z,28.1939,-89.1770,11.1,28.2,11111222
Shell,ioos:station:wmo:42873:2,2021-10-05T02:13:00Z,28.1939,-89.1769,11.1,28.1,11111222
Shell,ioos:station:wmo:42873:2,2021-10-05T02:23:00Z,28.1939,-89.1773,11.0,28.1,11111222
Shell,ioos:station:wmo:42873:2,2021-10-05T02:33:00Z,28.1940,-89.1768,11.0,28.0,11111222
Shell,ioos:station:wmo:42873:2,2021-10-05T02:43:00Z,28.1946,-89.1751,11.2,28.1,11111222
Shell,ioos:station:wmo:42873:2,2021-10-05T02:53:00Z,28.1938,-89.1772,11.1,28.2,11111222
Shell,ioos:station:wmo:42873:2,2021-10-05T03:03:00Z,28.1941,-89.1765,11.1,28.1,11111222
Shell,ioos:station:wmo:42873:2,2021-10-05T03:13:00Z,28.1938,-89.1774,11.1,28.0,11111222
Shell,ioos:station:wmo:42873:2,2021-10-05T03:23:00Z,28.1938,-89.1773,11.0,28.1,11111222
Shell,ioos:station:wmo:42873:2,2021-10-05T03:33:00Z,28.1939,-89.1772,11.1,28.1,11111222
Shell,ioos:station:wmo:42873:2,2021-10-05T03:43:00Z,28.1938,-89.1774,11.1,28.2,11111222
Shell,ioos:station:wmo:42873:2,2021-10-05T03:53:00Z,28.1939,-89.1773,11.1,28.2,11111222
Shell,ioos:station:wmo:42873:2,2021-10-05T04:03:00Z,28.1940,-89.1775,11.1,28.2,11111222
Shell,ioos:station:wmo:42873:2,2021-10-05T04:13:00Z,28.1940,-89.1774,11.1,28.2,11111222
Shell,ioos:station:wmo:42873:2,2021-10-05T04:23:00Z,28.1939,-89.1770,11.1,28.2,11111222
Shell,ioos:station:wmo:42873:2,2021-10-05T04:33:00Z,28.1939,-89.1770,11.1,28.2,11111222
Shell,ioos:station:wmo:42873:2,2021-10-05T04:43:00Z,28.1939,-89.1771,11.1,28.4,11111222
Shell,ioos:station:wmo:42873:2,2021-10-05T04:53:00Z,28.1940,-89.1771,11.1,28.5,11111222
Shell,ioos:station:wmo:42873:2,2021-10-05T05:03:00Z,28.1939,-89.1772,11.1,28.6,11111222
Shell,ioos:station:wmo:42873:2,2021-10-05T05:13:00Z,28.1934,-89.1783,11.1,28.5,11111222
Shell,ioos:station:wmo:42873:2,2021-10-05T05:23:00Z,28.1939,-89.1775,11.1,28.5,11111222
Shell,ioos:station:wmo:42873:2,2021-10-05T05:33:00Z,28.1939,-89.1772,11.1,28.5,11111222
Shell,ioos:station:wmo:42873:2,2021-10-05T05:43:00Z,28.1939,-89.1771,11.1,28.4,11111222
Shell,ioos:station:wmo:42873:2,2021-10-05T05:53:00Z,28.1939,-89.1771,11.1,28.4,11111222
Shell,ioos:station:wmo:42873:2,2021-10-05T06:03:00Z,28.1939,-89.1771,11.1,28.2,11111222
Shell,ioos:station:wmo:42873:2,2021-10-05T06:13:00Z,28.1940,-89.1770,11.1,28.0,11111222
Shell,ioos:station:wmo:42873:2,2021-10-05T06:23:00Z,28.1940,-89.1772,11.1,28.0,11111222
Shell,ioos:station:wmo:42873:2,2021-10-05T06:33:00Z,28.1939,-89.1771,11.1,28.1,11111222
Shell,ioos:station:wmo:42873:2,2021-10-05T06:43:00Z,28.1939,-89.1771,11.1,28.1,11111222
Shell,ioos:station:wmo:42873:2,2021-10-05T06:53:00Z,28.1939,-89.1771,11.1,28.1,11111222
Shell,ioos:station:wmo:42873:2,2021-10-05T07:03:00Z,28.1939,-89.1770,11.1,28.1,11111222
Shell,ioos:station:wmo:42873:2,2021-10-05T07:13:00Z,28.1939,-89.1770,11.1,28.1,11111222
Shell,ioos:station:wmo:42873:2,2021-10-05T07:23:00Z,28.1939,-89.1771,11.1,28.0,11111222
Shell,ioos:station:wmo:42873:2,2021-10-05T07:33:00Z,28.1939,-89.1770,11.2,28.0,11111222
Shell,ioos:station:wmo:42873:2,2021-10-05T07:43:00Z,28.1939,-89.1771,11.2,28.0,11111222
Shell,ioos:station:wmo:42873:2,2021-10-05T07:53:00Z,28.1939,-89.1771,11.2,28.0,11111222
Shell,ioos:station:wmo:42873:2,2021-10-05T08:03:00Z,28.1940,-89.1771,11.2,28.0,11111222
Shell,ioos:station:wmo:42873:2,2021-10-05T08:13:00Z,28.1940,-89.1770,11.2,28.0,11111222
Shell,ioos:station:wmo:42873:2,2021-10-05T08:23:00Z,28.1939,-89.1768,11.1,28.0,11111222
Shell,ioos:station:wmo:42873:2,2021-10-05T08:33:00Z,28.1939,-89.1770,11.1,27.9,11111222
Shell,ioos:station:wmo:42873:2,2021-10-05T08:43:00Z,28.1939,-89.1776,11.1,27.9,11111222
Shell,ioos:station:wmo:42873:2,2021-10-05T08:53:00Z,28.1940,-89.1775,11.1,27.9,11111222
Shell,ioos:station:wmo:42873:2,2021-10-05T09:04:00Z,28.1940,-89.1773,11.0,27.8,11111222
Shell,ioos:station:wmo:42873:2,2021-10-05T09:14:00Z,28.1940,-89.1773,11.0,27.8,11111222
Shell,ioos:station:wmo:42873:2,2021-10-05T09:24:00Z,28.1940,-89.1771,11.0,27.8,11111222
Shell,ioos:station:wmo:42873:2,2021-10-05T09:34:00Z,28.1940,-89.1769,11.0,27.9,11111222
Shell,ioos:station:wmo:42873:2,2021-10-05T09:44:00Z,28.1939,-89.1772,11.1,27.9,11111222
Shell,ioos:station:wmo:42873:2,2021-10-05T09:54:00Z,28.1940,-89.1771,11.2,27.9,11111222
Shell,ioos:station:wmo:42873:2,2021-10-05T10:04:00Z,28.1940,-89.1772,11.2,27.9,11111222
Shell,ioos:station:wmo:42873:2,2021-10-05T10:14:00Z,28.1940,-89.1773,11.2,27.9,11111222
Shell,ioos:station:wmo:42873:2,2021-10-05T10:24:00Z,28.1939,-89.1775,11.1,27.9,11111222
Shell,ioos:station:wmo:42873:2,2021-10-05T10:34:00Z,28.1940,-89.1773,11.1,27.9,11111222
Shell,ioos:station:wmo:42873:2,2021-10-05T10:44:00Z,28.1940,-89.1773,11.1,28.0,11111222
Shell,ioos:station:wmo:42873:2,2021-10-05T10:54:00Z,28.1939,-89.1771,11.1,28.0,11111222
Shell,ioos:station:wmo:42873:2,2021-10-05T11:04:00Z,28.1939,-89.1772,11.0,28.2,11111222
Shell,ioos:station:wmo:42873:2,2021-10-05T11:14:00Z,28.1939,-89.1769,10.9,28.3,11111222
Shell,ioos:station:wmo:42873:2,2021-10-05T11:24:00Z,28.1939,-89.1772,11.1,28.3,11111222
Shell,ioos:station:wmo:42873:2,2021-10-05T11:34:00Z,28.1941,-89.1764,11.1,28.4,11111222
Shell,ioos:station:wmo:42873:2,2021-10-05T11:44:00Z,28.1940,-89.1769,11.1,28.3,11111222
Shell,ioos:station:wmo:42873:2,2021-10-05T11:54:00Z,28.1940,-89.1771,11.0,28.3,11111222
Shell,ioos:station:wmo:42873:2,2021-10-05T12:04:00Z,28.1940,-89.1771,11.0,28.2,11111222
Shell,ioos:station:wmo:42873:2,2021-10-05T12:14:00Z,28.1939,-89.1770,11.0,28.3,11111222
Shell,ioos:station:wmo:42873:2,2021-10-05T12:24:00Z,28.1938,-89.1773,11.0,28.3,11111222
Shell,ioos:station:wmo:42873:2,2021-10-05T12:34:00Z,28.1936,-89.1775,11.0,28.3,11111222
Shell,ioos:station:wmo:42873:2,2021-10-05T12:44:00Z,28.1939,-89.1772,11.0,28.3,11111222
Shell,ioos:station:wmo:42873:2,2021-10-05T12:54:00Z,28.1938,-89.1772,11.0,28.2,11111222
Shell,ioos:station:wmo:42873:2,2021-10-05T13:04:00Z,28.1939,-89.1771,11.0,28.2,11111222
Shell,ioos:station:wmo:42873:2,2021-10-05T13:14:00Z,28.1939,-89.1772,11.0,28.2,11111222
Shell,ioos:station:wmo:42873:2,2021-10-05T13:24:00Z,28.1939,-89.1771,11.0,28.2,11111222
Shell,ioos:station:wmo:42873:2,2021-10-05T13:34:00Z,28.1938,-89.1773,11.0,28.2,11111222
Shell,ioos:station:wmo:42873:2,2021-10-05T13:44:00Z,28.1939,-89.1772,11.0,28.2,11111222
Shell,ioos:station:wmo:42873:2,2021-10-05T13:54:00Z,28.1938,-89.1771,11.0,28.3,11111222
Shell,ioos:station:wmo:42873:2,2021-10-05T14:04:00Z,28.1939,-89.1771,11.0,28.3,11111222
Shell,ioos:station:wmo:42873:2,2021-10-05T14:14:00Z,28.1940,-89.1769,11.0,28.3,11111222
Shell,ioos:station:wmo:42873:2,2021-10-05T14:24:00Z,28.1939,-89.1772,11.0,28.3,11111222
Shell,ioos:station:wmo:42873:2,2021-10-05T14:34:00Z,28.1938,-89.1772,10.9,28.3,11111222
Shell,ioos:station:wmo:42873:2,2021-10-05T14:44:00Z,28.1940,-89.1770,10.9,28.3,11111222
Shell,ioos:station:wmo:42873:2,2021-10-05T14:54:00Z,28.1940,-89.1770,11.1,28.3,11111222
Shell,ioos:station:wmo:42873:2,2021-10-05T15:04:00Z,28.1940,-89.1773,11.1,28.4,11111222
Shell,ioos:station:wmo:42873:2,2021-10-05T15:14:00Z,28.1939,-89.1772,11.1,28.4,11111222
Shell,ioos:station:wmo:42873:2,2021-10-05T15:24:00Z,28.1939,-89.1770,11.1,28.3,11111222
Shell,ioos:station:wmo:42873:2,2021-10-05T15:34:00Z,28.1939,-89.1771,11.1,28.3,11111222
Shell,ioos:station:wmo:42873:2,2021-10-05T15:44:00Z,28.1939,-89.1773,11.1,28.3,11111222
Shell,ioos:station:wmo:42873:2,2021-10-05T15:54:00Z,28.1939,-89.1772,11.0,28.3,11111222
Shell,ioos:station:wmo:42873:2,2021-10-05T16:04:00Z,28.1939,-89.1771,11.0,28.3,11111222
Shell,ioos:station:wmo:42873:2,2021-10-05T16:14:00Z,28.1939,-89.1772,10.9,28.3,11111222
Shell,ioos:station:wmo:42873:2,2021-10-05T16:25:00Z,28.1939,-89.1772,10.9,28.3,11111222
Shell,ioos:station:wmo:42873:2,2021-10-05T16:35:00Z,28.1938,-89.1773,10.9,28.3,11111222
Shell,ioos:station:wmo:42873:2,2021-10-05T16:45:00Z,28.1940,-89.1772,10.9,28.2,11111222
Shell,ioos:station:wmo:42873:2,2021-10-05T16:55:00Z,28.1944,-89.1764,10.9,28.3,11111222
Shell,ioos:station:wmo:42873:2,2021-10-05T17:05:00Z,28.1939,-89.1772,10.8,28.3,11111222
Shell,ioos:station:wmo:42873:2,2021-10-05T17:15:00Z,28.1939,-89.1773,10.9,28.3,11111222
Shell,ioos:station:wmo:42873:2,2021-10-05T17:25:00Z,28.1940,-89.1773,11.0,28.3,11111222
Shell,ioos:station:wmo:42873:2,2021-10-05T17:35:00Z,28.1940,-89.1773,11.0,28.2,11111222
Shell,ioos:station:wmo:42873:2,2021-10-05T17:45:00Z,28.1939,-89.1771,11.0,28.3,11111222
Shell,ioos:station:wmo:42873:2,2021-10-05T17:55:00Z,28.1939,-89.1771,11.1,28.3,11111222
Shell,ioos:station:wmo:42873:2,2021-10-05T18:05:00Z,28.1938,-89.1766,11.1,28.3,11111222
Shell,ioos:station:wmo:42873:2,2021-10-05T18:15:00Z,28.1937,-89.1768,11.1,28.3,11111222
Shell,ioos:station:wmo:42873:2,2021-10-05T18:25:00Z,28.1936,-89.1769,11.1,28.3,11111222
Shell,ioos:station:wmo:42873:2,2021-10-05T18:35:00Z,28.1939,-89.1772,11.1,28.3,11111222
Shell,ioos:station:wmo:42873:2,2021-10-05T18:45:00Z,28.1936,-89.1765,11.0,28.3,11111222
Shell,ioos:station:wmo:42873:2,2021-10-05T18:55:00Z,28.1941,-89.1773,10.9,28.3,11111222
Shell,ioos:station:wmo:42873:2,2021-10-05T19:05:00Z,28.1939,-89.1771,10.9,28.3,11111222
Shell,ioos:station:wmo:42873:2,2021-10-05T19:15:00Z,28.1940,-89.1772,11.1,28.3,11111222
Shell,ioos:station:wmo:42873:2,2021-10-05T19:25:00Z,28.1939,-89.1771,11.0,28.3,11111222
Shell,ioos:station:wmo:42873:2,2021-10-05T19:35:00Z,28.1939,-89.1771,11.0,28.3,11111222
Shell,ioos:station:wmo:42873:2,2021-10-05T19:45:00Z,28.1938,-89.1774,11.1,28.4,11111222
Shell,ioos:station:wmo:42873:2,2021-10-05T19:55:00Z,28.1939,-89.1772,11.1,28.4,11111222
Shell,ioos:station:wmo:42873:2,2021-10-05T20:05:00Z,28.1939,-89.1772,11.1,28.4,11111222
Shell,ioos:station:wmo:42873:2,2021-10-05T20:15:00Z,28.1939,-89.1777,11.0,28.4,11111222
Shell,ioos:station:wmo:42873:2,2021-10-05T20:25:00Z,28.1939,-89.1790,11.0,28.4,11111222
Shell,ioos:station:wmo:42873:2,2021-10-05T20:35:00Z,28.1939,-89.1773,11.0,28.3,11111222
Shell,ioos:station:wmo:42873:2,2021-10-05T20:45:00Z,28.1939,-89.1772,11.1,28.3,11111222
Shell,ioos:station:wmo:42873:2,2021-10-05T20:55:00Z,28.1940,-89.1772,11.1,28.4,11111222
Shell,ioos:station:wmo:42873:2,2021-10-05T21:05:00Z,28.1939,-89.1772,11.0,28.3,11111222
Shell,ioos:station:wmo:42873:2,2021-10-05T21:15:00Z,28.1940,-89.1771,11.0,28.3,11111222
Shell,ioos:station:wmo:42873:2,2021-10-05T21:25:00Z,28.1940,-89.1772,11.0,28.3,11111222
Shell,ioos:station:wmo:42873:2,2021-10-05T21:35:00Z,28.1945,-89.1777,11.1,28.3,11111222
Shell,ioos:station:wmo:42873:2,2021-10-05T21:45:00Z,28.1944,-89.1780,11.0,28.3,11111222
Shell,ioos:station:wmo:42873:2,2021-10-05T21:55:00Z,28.1939,-89.1772,11.0,28.2,11111222
Shell,ioos:station:wmo:42873:2,2021-10-05T22:05:00Z,28.1939,-89.1772,11.0,28.2,11111222
Shell,ioos:station:wmo:42873:2,2021-10-05T22:15:00Z,28.1939,-89.1773,11.0,28.2,11111222
Shell,ioos:station:wmo:42873:2,2021-10-05T22:25:00Z,28.1939,-89.1771,11.0,28.2,11111222
Shell,ioos:station:wmo:42873:2,2021-10-05T22:35:00Z,28.1938,-89.1770,11.0,28.2,11111222
Shell,ioos:station:wmo:42873:2,2021-10-05T22:45:00Z,28.1939,-89.1773,11.0,28.2,11111222
Shell,ioos:station:wmo:42873:2,2021-10-05T22:55:00Z,28.1940,-89.1772,11.0,28.2,11111222
Shell,ioos:station:wmo:42873:2,2021-10-05T23:05:00Z,28.1940,-89.1772,11.0,28.2,11111222
Shell,ioos:station:wmo:42873:2,2021-10-05T23:15:00Z,28.1940,-89.1774,11.0,28.2,11111222
Shell,ioos:station:wmo:42873:2,2021-10-05T23:25:00Z,28.1939,-89.1776,11.0,28.2,11111222
Shell,ioos:station:wmo:42873:2,2021-10-05T23:35:00Z,28.1939,-89.1773,11.0,28.2,11111222
Shell,ioos:station:wmo:42873:2,2021-10-05T23:46:00Z,28.1939,-89.1772,11.0,28.2,11111222
Shell,ioos:station:wmo:42873:2,2021-10-05T23:56:00Z,28.1939,-89.1771,11.0,28.2,11111222
Shell,ioos:station:wmo:42873:2,2021-10-06T00:06:00Z,28.1939,-89.1771,11.1,28.2,11111222
Shell,ioos:station:wmo:42873:2,2021-10-06T00:16:00Z,28.1939,-89.1772,11.1,28.3,11111222
Shell,ioos:station:wmo:42873:2,2021-10-06T00:26:00Z,28.1939,-89.1771,11.1,28.2,11111222
Shell,ioos:station:wmo:42873:2,2021-10-06T00:36:00Z,28.1940,-89.1772,11.1,28.2,11111222
Shell,ioos:station:wmo:42873:2,2021-10-06T00:46:00Z,28.1939,-89.1771,11.1,28.2,11111222
Shell,ioos:station:wmo:42873:2,2021-10-06T00:56:00Z,28.1940,-89.1772,11.1,28.2,11111222
Shell,ioos:station:wmo:42873:2,2021-10-06T01:06:00Z,28.1939,-89.1773,11.1,28.2,11111222
Shell,ioos:station:wmo:42873:2,2021-10-06T01:16:00Z,28.1939,-89.1772,11.0,28.2,11111222
Shell,ioos:station:wmo:42873:2,2021-10-06T01:26:00Z,28.1939,-89.1769,11.0,28.2,11111222
Shell,ioos:station:wmo:42873:2,2021-10-06T01:36:00Z,28.1939,-89.1770,11.0,28.1,11111222
Shell,ioos:station:wmo:42873:2,2021-10-06T01:46:00Z,28.1939,-89.1770,11.1,28.1,11111222
Shell,ioos:station:wmo:42873:2,2021-10-06T01:56:00Z,28.1940,-89.1769,11.1,28.1,11111222
Shell,ioos:station:wmo:42873:2,2021-10-06T02:06:00Z,28.1939,-89.1770,11.0,28.1,11111222
Shell,ioos:station:wmo:42873:2,2021-10-06T02:16:00Z,28.1940,-89.1770,11.1,28.1,11111222
Shell,ioos:station:wmo:42873:2,2021-10-06T02:26:00Z,28.1939,-89.1771,11.1,28.1,11111222
Shell,ioos:station:wmo:42873:2,2021-10-06T02:36:00Z,28.1939,-89.1770,11.1,28.1,11111222
Shell,ioos:station:wmo:42873:2,2021-10-06T02:46:00Z,28.1940,-89.1769,11.1,28.1,11111222
Shell,ioos:station:wmo:42873:2,2021-10-06T02:56:00Z,28.1940,-89.1768,11.1,28.0,11111222
Shell,ioos:station:wmo:42873:2,2021-10-06T03:06:00Z,28.1939,-89.1772,11.2,28.1,11111222
Shell,ioos:station:wmo:42873:2,2021-10-06T03:16:00Z,28.1936,-89.1776,11.2,28.1,11111222
Shell,ioos:station:wmo:42873:2,2021-10-06T03:26:00Z,28.1938,-89.1774,11.3,28.1,11111222
Shell,ioos:station:wmo:42873:2,2021-10-06T03:36:00Z,28.1939,-89.1773,11.2,28.1,11111222
Shell,ioos:station:wmo:42873:2,2021-10-06T03:46:00Z,28.1939,-89.1772,11.2,28.1,11111222
Shell,ioos:station:wmo:42873:2,2021-10-06T03:56:00Z,28.1940,-89.1776,11.2,28.1,11111222
Shell,ioos:station:wmo:42873:2,2021-10-06T04:06:00Z,28.1940,-89.1775,11.2,28.1,11111222
Shell,ioos:station:wmo:42873:2,2021-10-06T04:16:00Z,28.1940,-89.1774,11.2,28.1,11111222
Shell,ioos:station:wmo:42873:2,2021-10-06T04:26:00Z,28.1939,-89.1774,11.2,28.1,11111222
Shell,ioos:station:wmo:42873:2,2021-10-06T04:36:00Z,28.1939,-89.1772,11.2,28.2,11111222
Shell,ioos:station:wmo:42873:2,2021-10-06T04:46:00Z,28.1939,-89.1772,11.2,28.2,11111222
Shell,ioos:station:wmo:42873:2,2021-10-06T04:56:00Z,28.1937,-89.1777,11.2,28.1,11111222
Shell,ioos:station:wmo:42873:2,2021-10-06T05:06:00Z,28.1936,-89.1780,11.2,28.1,11111222
Shell,ioos:station:wmo:42873:2,2021-10-06T05:16:00Z,28.1938,-89.1776,11.1,28.1,11111222
Shell,ioos:station:wmo:42873:2,2021-10-06T05:26:00Z,28.1939,-89.1771,11.1,28.1,11111222
Shell,ioos:station:wmo:42873:2,2021-10-06T05:36:00Z,28.1939,-89.1771,11.1,28.2,11111222
Shell,ioos:station:wmo:42873:2,2021-10-06T05:46:00Z,28.1939,-89.1772,11.1,28.2,11111222
Shell,ioos:station:wmo:42873:2,2021-10-06T05:56:00Z,28.1939,-89.1771,11.1,28.2,11111222
Shell,ioos:station:wmo:42873:2,2021-10-06T06:06:00Z,28.1939,-89.1772,11.1,28.2,11111222
Shell,ioos:station:wmo:42873:2,2021-10-06T06:16:00Z,28.1939,-89.1771,11.1,28.2,11111222
Shell,ioos:station:wmo:42873:2,2021-10-06T06:26:00Z,28.1939,-89.1772,11.0,28.2,11111222
Shell,ioos:station:wmo:42873:2,2021-10-06T06:36:00Z,28.1939,-89.1772,11.0,28.2,11111222
Shell,ioos:station:wmo:42873:2,2021-10-06T06:46:00Z,28.1939,-89.1771,10.9,28.2,11111222
Shell,ioos:station:wmo:42873:2,2021-10-06T06:56:00Z,28.1939,-89.1771,10.9,28.3,11111222
Shell,ioos:station:wmo:42873:2,2021-10-06T07:06:00Z,28.1939,-89.1771,11.0,28.3,11111222
Shell,ioos:station:wmo:42873:2,2021-10-06T07:17:00Z,28.1939,-89.1771,11.0,28.3,11111222
Shell,ioos:station:wmo:42873:2,2021-10-06T07:27:00Z,28.1939,-89.1771,11.1,28.3,11111222
Shell,ioos:station:wmo:42873:2,2021-10-06T07:37:00Z,28.1939,-89.1772,11.1,28.3,11111222
Shell,ioos:station:wmo:42873:2,2021-10-06T07:47:00Z,28.1938,-89.1773,11.0,28.3,11111222
Shell,ioos:station:wmo:42873:2,2021-10-06T07:57:00Z,28.1939,-89.1770,11.1,28.3,11111222
Shell,ioos:station:wmo:42873:2,2021-10-06T08:07:00Z,28.1939,-89.1769,11.1,28.3,11111222
Shell,ioos:station:wmo:42873:2,2021-10-06T08:17:00Z,28.1939,-89.1770,11.1,28.3,11111222
Shell,ioos:station:wmo:42873:2,2021-10-06T08:27:00Z,28.1939,-89.1774,11.1,28.2,11111222
Shell,ioos:station:wmo:42873:2,2021-10-06T08:37:00Z,28.1939,-89.1772,11.0,28.3,11111222
Shell,ioos:station:wmo:42873:2,2021-10-06T08:47:00Z,28.1939,-89.1774,11.1,28.3,11111222
Shell,ioos:station:wmo:42873:2,2021-10-06T08:57:00Z,28.1939,-89.1771,11.1,28.3,11111222
Shell,ioos:station:wmo:42873:2,2021-10-06T09:07:00Z,28.1940,-89.1773,11.1,28.4,11111222
Shell,ioos:station:wmo:42873:2,2021-10-06T09:17:00Z,28.1940,-89.1773,11.1,28.4,11111222
Shell,ioos:station:wmo:42873:2,2021-10-06T09:27:00Z,28.1939,-89.1775,11.0,28.4,11111222
Shell,ioos:station:wmo:42873:2,2021-10-06T09:37:00Z,28.1940,-89.1771,11.0,28.3,11111222